• în România
  • Lista ţărilor
  • Pe 7 zile
  • Temperatura apei
  • Hartă satelitară
  • Meteo pe hartă
  • Widget-uri
  • user-avatar
    Intrare

    Meteo pe oră la Hobart

    Astăzi, 17 Octombrie, Miercuri

    Timp Temperatura Precipitaţii Vânt Presiune Umiditate
    00:00 +18°C° 0.2 mm 1 m/s 747 mmHg 91%
    01:00 +15°C° 0.2 mm 0 m/s 747 mmHg 93%
    02:00 +15°C° 0.1 mm 0 m/s 747 mmHg 94%
    03:00 +16°C° 0.1 mm 1 m/s 747 mmHg 94%
    04:00 +15°C° 0 mm 1 m/s 746 mmHg 94%
    05:00 +15°C° 0.1 mm 1 m/s 746 mmHg 95%
    06:00 +16°C° 0.1 mm 1 m/s 746 mmHg 95%
    07:00 +15°C° 0.1 mm 0 m/s 746 mmHg 95%
    08:00 +15°C° 0.3 mm 0 m/s 747 mmHg 94%
    09:00 +16°C° 0.3 mm 0 m/s 747 mmHg 93%
    10:00 +17°C° 0 mm 0 m/s 747 mmHg 90%
    11:00 +17°C° 0.4 mm 0 m/s 746 mmHg 91%
    12:00 +18°C° 0.4 mm 0 m/s 746 mmHg 91%
    13:00 +20°C° 0.4 mm 1 m/s 746 mmHg 92%
    14:00 +19°C° 0.6 mm 1 m/s 746 mmHg 93%
    15:00 +19°C° 0.6 mm 1 m/s 746 mmHg 93%
    16:00 +16°C° 0 mm 0 m/s 745 mmHg 98%
    17:00 +18°C° 1.1 mm 1 m/s 745 mmHg 98%
    18:00 +16°C° 1.1 mm 1 m/s 746 mmHg 98%
    19:00 +16°C° 1.1 mm 1 m/s 746 mmHg 98%
    20:00 +15°C° 0.1 mm 1 m/s 746 mmHg 97%
    21:00 +15°C° 0.1 mm 1 m/s 746 mmHg 97%
    22:00 +14°C° 0.1 mm 1 m/s 746 mmHg 97%
    23:00 +14°C° 0 mm 1 m/s 746 mmHg 97%

    Mâine, 18 Octombrie, Joi

    Timp Temperatura Precipitaţii Vânt Presiune Umiditate
    00:00 +13°C° 0 mm 1 m/s 745 mmHg 97%
    01:00 +13°C° 0 mm 1 m/s 745 mmHg 97%
    02:00 +12°C° 0 mm 1 m/s 745 mmHg 97%
    03:00 +12°C° 0 mm 1 m/s 745 mmHg 97%
    04:00 +12°C° 0 mm 1 m/s 745 mmHg 98%
    05:00 +13°C° 0 mm 1 m/s 745 mmHg 96%
    06:00 +14°C° 0 mm 1 m/s 745 mmHg 95%
    07:00 +15°C° 0 mm 1 m/s 745 mmHg 93%
    08:00 +18°C° 0.1 mm 1 m/s 745 mmHg 84%
    09:00 +19°C° 0.1 mm 2 m/s 744 mmHg 74%
    10:00 +21°C° 0.1 mm 2 m/s 744 mmHg 64%
    11:00 +21°C° 0.4 mm 3 m/s 744 mmHg 65%
    12:00 +21°C° 0.4 mm 3 m/s 744 mmHg 66%
    13:00 +21°C° 0.4 mm 3 m/s 744 mmHg 67%
    14:00 +21°C° 1 mm 3 m/s 743 mmHg 72%
    15:00 +20°C° 1 mm 3 m/s 743 mmHg 77%
    16:00 +19°C° 1 mm 3 m/s 743 mmHg 81%
    17:00 +17°C° 1 mm 3 m/s 743 mmHg 85%
    18:00 +16°C° 1 mm 3 m/s 744 mmHg 89%
    19:00 +14°C° 1 mm 3 m/s 744 mmHg 93%
    20:00 +14°C° 0.7 mm 2 m/s 744 mmHg 94%
    21:00 +14°C° 0.7 mm 2 m/s 744 mmHg 95%
    22:00 +14°C° 0.7 mm 2 m/s 745 mmHg 96%
    23:00 +13°C° 0.3 mm 2 m/s 745 mmHg 96%

    Poimâine, 19 Octombrie, Vineri

    Timp Temperatura Precipitaţii Vânt Presiune Umiditate
    00:00 +13°C° 0.3 mm 2 m/s 745 mmHg 97%
    01:00 +13°C° 0.3 mm 2 m/s 745 mmHg 97%
    02:00 +13°C° 0 mm 1 m/s 745 mmHg 97%
    03:00 +13°C° 0 mm 1 m/s 745 mmHg 97%
    04:00 +13°C° 0 mm 1 m/s 745 mmHg 97%
    05:00 +13°C° 0 mm 1 m/s 745 mmHg 95%
    06:00 +14°C° 0 mm 1 m/s 745 mmHg 94%
    07:00 +14°C° 0 mm 1 m/s 745 mmHg 93%
    08:00 +16°C° 0 mm 1 m/s 745 mmHg 81%
    09:00 +19°C° 0 mm 1 m/s 745 mmHg 70%
    10:00 +21°C° 0 mm 1 m/s 745 mmHg 59%
    11:00 +21°C° 0 mm 2 m/s 745 mmHg 55%
    12:00 +23°C° 0 mm 2 m/s 744 mmHg 51%
    13:00 +24°C° 0 mm 2 m/s 744 mmHg 47%
    14:00 +24°C° 0 mm 3 m/s 743 mmHg 48%
    15:00 +24°C° 0 mm 3 m/s 743 mmHg 48%
    16:00 +24°C° 0 mm 3 m/s 742 mmHg 49%
    17:00 +21°C° 0 mm 3 m/s 742 mmHg 56%
    18:00 +19°C° 0 mm 2 m/s 742 mmHg 63%
    19:00 +17°C° 0 mm 2 m/s 742 mmHg 70%
    20:00 +16°C° 0 mm 2 m/s 741 mmHg 69%
    21:00 +16°C° 0 mm 3 m/s 741 mmHg 69%
    22:00 +14°C° 0 mm 3 m/s 741 mmHg 69%
    23:00 +15°C° 0 mm 4 m/s 740 mmHg 69%

    20 Octombrie, Sâmbătă

    Timp Temperatura Precipitaţii Vânt Presiune Umiditate
    00:00 +15°C° 0 mm 5 m/s 740 mmHg 68%
    01:00 +16°C° 0 mm 5 m/s 739 mmHg 68%
    02:00 +15°C° 0.7 mm 5 m/s 739 mmHg 77%
    03:00 +13°C° 0.7 mm 4 m/s 740 mmHg 85%
    04:00 +12°C° 0.7 mm 4 m/s 740 mmHg 94%
    05:00 +11°C° 0.3 mm 4 m/s 741 mmHg 91%
    06:00 +10°C° 0.3 mm 5 m/s 741 mmHg 89%
    07:00 +9°C° 0.3 mm 5 m/s 742 mmHg 87%
    08:00 +10°C° 0 mm 5 m/s 742 mmHg 76%
    09:00 +13°C° 0 mm 6 m/s 743 mmHg 66%
    10:00 +14°C° 0 mm 6 m/s 743 mmHg 56%
    11:00 +15°C° 0 mm 6 m/s 744 mmHg 52%
    12:00 +16°C° 0 mm 6 m/s 744 mmHg 48%
    13:00 +17°C° 0 mm 6 m/s 744 mmHg 44%
    14:00 +16°C° 0 mm 5 m/s 745 mmHg 47%
    15:00 +16°C° 0 mm 5 m/s 745 mmHg 50%
    16:00 +16°C° 0 mm 5 m/s 745 mmHg 53%
    17:00 +14°C° 0 mm 4 m/s 746 mmHg 60%
    18:00 +12°C° 0 mm 3 m/s 747 mmHg 68%
    19:00 +11°C° 0 mm 3 m/s 748 mmHg 75%
    20:00 +10°C° 0 mm 3 m/s 748 mmHg 77%
    21:00 +10°C° 0 mm 3 m/s 749 mmHg 79%
    22:00 +10°C° 0 mm 3 m/s 749 mmHg 81%
    23:00 +9°C° 0 mm 3 m/s 749 mmHg 83%

    21 Octombrie, Duminică

    Timp Temperatura Precipitaţii Vânt Presiune Umiditate
    00:00 +9°C° 0 mm 3 m/s 749 mmHg 85%
    01:00 +9°C° 0 mm 3 m/s 749 mmHg 87%
    02:00 +8°C° 0 mm 2 m/s 749 mmHg 89%
    03:00 +8°C° 0 mm 2 m/s 749 mmHg 90%
    04:00 +8°C° 0 mm 2 m/s 749 mmHg 92%
    05:00 +9°C° 0 mm 2 m/s 749 mmHg 86%
    06:00 +10°C° 0 mm 2 m/s 750 mmHg 80%
    07:00 +13°C° 0 mm 2 m/s 750 mmHg 74%
    08:00 +15°C° 0 mm 2 m/s 750 mmHg 65%
    09:00 +17°C° 0 mm 2 m/s 749 mmHg 57%
    10:00 +19°C° 0 mm 2 m/s 749 mmHg 48%
    11:00 +21°C° 0 mm 2 m/s 749 mmHg 45%
    12:00 +23°C° 0 mm 2 m/s 749 mmHg 41%
    13:00 +25°C° 0 mm 2 m/s 748 mmHg 38%
    14:00 +24°C° 0 mm 3 m/s 748 mmHg 40%
    15:00 +24°C° 0 mm 3 m/s 747 mmHg 42%
    16:00 +24°C° 0 mm 3 m/s 747 mmHg 44%
    17:00 +20°C° 0 mm 3 m/s 747 mmHg 52%
    18:00 +18°C° 0 mm 2 m/s 747 mmHg 60%
    19:00 +16°C° 0 mm 2 m/s 747 mmHg 69%
    20:00 +15°C° 0 mm 2 m/s 747 mmHg 74%
    21:00 +14°C° 0 mm 2 m/s 747 mmHg 80%
    22:00 +12°C° 0 mm 1 m/s 747 mmHg 86%
    23:00 +12°C° 0 mm 2 m/s 747 mmHg 89%

    22 Octombrie, Luni

    Timp Temperatura Precipitaţii Vânt Presiune Umiditate
    00:00 +10°C° 0 mm 2 m/s 746 mmHg 92%
    01:00 +9°C° 0 mm 2 m/s 746 mmHg 95%
    02:00 +9°C° 0 mm 2 m/s 746 mmHg 94%
    03:00 +9°C° 0 mm 2 m/s 745 mmHg 94%
    04:00 +9°C° 0 mm 2 m/s 745 mmHg 93%
    05:00 +10°C° 0 mm 2 m/s 745 mmHg 85%
    06:00 +12°C° 0 mm 2 m/s 745 mmHg 77%
    07:00 +13°C° 0 mm 2 m/s 745 mmHg 69%
    08:00 +16°C° 0 mm 3 m/s 745 mmHg 57%
    09:00 +19°C° 0 mm 3 m/s 744 mmHg 45%
    10:00 +22°C° 0 mm 3 m/s 744 mmHg 34%
    11:00 +23°C° 0 mm 4 m/s 743 mmHg 32%
    12:00 +25°C° 0 mm 4 m/s 742 mmHg 30%
    13:00 +27°C° 0 mm 4 m/s 742 mmHg 28%
    14:00 +26°C° 0 mm 5 m/s 741 mmHg 29%
    15:00 +26°C° 0 mm 5 m/s 741 mmHg 31%
    16:00 +26°C° 0 mm 5 m/s 740 mmHg 33%
    17:00 +22°C° 0 mm 4 m/s 740 mmHg 41%
    18:00 +20°C° 0 mm 4 m/s 740 mmHg 49%
    19:00 +18°C° 0 mm 4 m/s 740 mmHg 57%
    20:00 +15°C° 0 mm 4 m/s 740 mmHg 61%
    21:00 +14°C° 0 mm 4 m/s 739 mmHg 65%
    22:00 +13°C° 0 mm 3 m/s 739 mmHg 70%
    23:00 +12°C° 0.6 mm 3 m/s 739 mmHg 78%
    Arată mai mult